Etowah, TN (37331)

3:13 AM EDT on September 05, 2015 (GMT -0400)
A Starr Mountain View | | Change Station
CLOSE
Current Station
Personal Weather Station
Location: Etowah, TN
Elevation: 950 ft
Nearby Weather Stations

Elev 950 ft 35.33 °N, 84.49 °W | Updated 4 seconds ago

Clear
Clear
69.9 °F
Feels Like 69.9 °F
N
0.0
Wind Variable Wind from North
Gusts 6.0 mph

Today
High -- | Low -- °F
--% Chance of Precip.
Yesterday
High -- | Low -- °F
Precip. -- in
7:13 AM 7:59 PM
Waning Gibbous, 51% visible
Pressure 30.07 in
Visibility 9.0 miles
Clouds Scattered Clouds 8000 ft
Dew Point 68 °F
Humidity 93%
Rainfall 0.00 in
Snow Depth Not available.
UV 0 out of 12
Pollen 9.70 out of 12
Air Quality Not available.
Flu Activity Not available.
METAR KMMI 050655Z AUTO 00000KT 9SM SCT080 20/19 A3007 RMK
Pressure 30.07 in
Visibility 9.0 miles
Clouds Scattered Clouds 8000 ft
Dew Point 68 °F
Humidity 93%
Rainfall 0.00 in
Snow Depth Not available.
UV 0 out of 12
Pollen 9.70 out of 12
Air Quality Not available.
Flu Activity Not available.
METAR KMMI 050655Z AUTO 00000KT 9SM SCT080 20/19 A3007 RMK

10-Day Weather Forecast

×

Almanac

Astronomy

Sep. 05, 2015 Rise Set
Actual Time
Civil Twilight
Nautical Twilight
Astronomical Twilight
Moon
Length of Visible Light
Length of Day
Tomorrow will be .
, % of the Moon is Illuminated

Today's Extremes

State Highs State Lows

Community

WunderPhotos

Upload Photos

1,852,430 photos uploaded!

WunderBlogs® & News

Nearby

Air Quality

  Air Quality AQ Index Pollutant
Not available.

Snow Depth

Station Depth Elevation

Earthquake Activity

City Distance Mag. Time & Date
Minimum magnitude displayed is 2.5.

Coastal Water Temperatures

Place Temperature

Stations

Nearby Weather Stations

Station Location Temp. Windchill Dew Point Humidity Wind Precip. Elev Updated Type